Peotone Weather
Station Historical Data
 
Daily Summary for August 27, 2014 Units:  English    Metric   Both
« Previous Day
Next Day »
Daily Weekly Monthly Yearly Custom
  Current: High: Low: Average:
Temperature: 69.1 °F 70.1 °F 67.8 °F 69.2 °F
Dew Point: 64.4 °F 68.6 °F 64.1 °F 67.3 °F
Humidity: 85% 96% 85% 94%
Wind Speed: 3.4mph 8.1mph 0.0mph 1.3mph
Wind Gust: 8.1mph 10.3mph - -
WindENE - - NE
Pressure: 30.14 in 30.14 in 30.10 in -
Precipitation: 0.00 in      
Historical Graphs
 
 
Tabular Data for August 27, 2014
Time Temperature Dew Point Pressure Wind Wind Speed Wind Gust Humidity Rainfall Rate (Hourly) solar Conditions
00:00 70.1 °F 68.6 °F 30.11 in NE 1.1 mph 10.3 mph 95% 0.00 in 0.00 W/m2
00:01 70.1 °F 68.6 °F 30.11 in NE 2.3 mph 10.3 mph 95% 0.00 in 0.00 W/m2
00:02 70.1 °F 68.6 °F 30.11 in Calm   4.6 mph 95% 0.00 in 0.00 W/m2
00:03 70.1 °F 68.6 °F 30.11 in Calm   4.6 mph 95% 0.00 in 0.00 W/m2
00:04 70.1 °F 68.6 °F 30.11 in NE 2.3 mph 4.6 mph 95% 0.00 in 0.00 W/m2
00:05 70.1 °F 68.6 °F 30.11 in Calm   4.6 mph 95% 0.00 in 0.00 W/m2
00:06 70.1 °F 68.6 °F 30.11 in NE 2.3 mph 4.6 mph 95% 0.00 in 0.00 W/m2
00:08 70.1 °F 68.6 °F 30.11 in NE 1.1 mph 5.8 mph 95% 0.00 in 0.00 W/m2
00:09 70.1 °F 68.6 °F 30.11 in NE 2.3 mph 5.8 mph 95% 0.00 in 0.00 W/m2
00:11 70.1 °F 68.6 °F 30.11 in NE 3.4 mph 5.8 mph 95% 0.00 in 0.00 W/m2
00:12 70.1 °F 68.6 °F 30.11 in NE 1.1 mph 4.6 mph 95% 0.00 in 0.00 W/m2
00:13 70.1 °F 68.6 °F 30.11 in Calm   6.9 mph 95% 0.00 in 0.00 W/m2
00:14 70.1 °F 68.6 °F 30.11 in Calm   6.9 mph 95% 0.00 in 0.00 W/m2
00:15 70.1 °F 68.6 °F 30.11 in Calm   6.9 mph 95% 0.00 in 0.00 W/m2
00:17 70.1 °F 68.6 °F 30.11 in NE 5.8 mph 5.8 mph 95% 0.00 in 0.00 W/m2
00:19 70.1 °F 68.6 °F 30.11 in NE 2.3 mph 5.8 mph 95% 0.00 in 0.00 W/m2
00:20 70.1 °F 68.6 °F 30.11 in NE 1.1 mph 5.8 mph 95% 0.00 in 0.00 W/m2
00:21 70.1 °F 68.6 °F 30.11 in NE 1.1 mph 5.8 mph 95% 0.00 in 0.00 W/m2
00:22 70.1 °F 68.6 °F 30.11 in NE 2.3 mph 2.3 mph 95% 0.00 in 0.00 W/m2
00:23 70.1 °F 68.6 °F 30.11 in NE 3.4 mph 4.6 mph 95% 0.00 in 0.00 W/m2
00:24 70.1 °F 68.6 °F 30.11 in NE 1.1 mph 5.8 mph 95% 0.00 in 0.00 W/m2
00:25 70.1 °F 68.6 °F 30.11 in NE 2.3 mph 5.8 mph 95% 0.00 in 0.00 W/m2
00:26 70.1 °F 68.6 °F 30.11 in NE 4.6 mph 5.8 mph 95% 0.00 in 0.00 W/m2
00:28 70.1 °F 68.6 °F 30.11 in Calm   4.6 mph 95% 0.00 in 0.00 W/m2
00:30 70.1 °F 68.6 °F 30.12 in Calm   4.6 mph 95% 0.00 in 0.00 W/m2
00:31 70.1 °F 68.6 °F 30.12 in NE 2.3 mph 4.6 mph 95% 0.00 in 0.00 W/m2
00:33 70.0 °F 68.5 °F 30.12 in NE 3.4 mph 3.4 mph 95% 0.00 in 0.00 W/m2
00:34 70.0 °F 68.5 °F 30.11 in NE 4.6 mph 4.6 mph 95% 0.00 in 0.00 W/m2
00:36 70.0 °F 68.5 °F 30.11 in Calm     95% 0.00 in 0.00 W/m2
00:39 69.9 °F 68.4 °F 30.11 in NE 1.1 mph 4.6 mph 95% 0.00 in 0.00 W/m2
00:40 69.9 °F 68.4 °F 30.11 in NE 2.3 mph 4.6 mph 95% 0.00 in 0.00 W/m2
00:41 69.9 °F 68.4 °F 30.11 in NE 1.1 mph 1.1 mph 95% 0.00 in 0.00 W/m2
00:42 69.9 °F 68.4 °F 30.11 in NE 4.6 mph 5.8 mph 95% 0.00 in 0.00 W/m2
00:45 69.9 °F 68.4 °F 30.11 in Calm   5.8 mph 95% 0.00 in 0.00 W/m2
00:46 69.9 °F 68.4 °F 30.11 in NE 2.3 mph 3.4 mph 95% 0.00 in 0.00 W/m2
00:47 69.9 °F 68.4 °F 30.11 in Calm   3.4 mph 95% 0.00 in 0.00 W/m2
00:48 69.9 °F 68.4 °F 30.11 in Calm   3.4 mph 95% 0.00 in 0.00 W/m2
00:50 69.9 °F 68.4 °F 30.11 in Calm   3.4 mph 95% 0.00 in 0.00 W/m2
00:52 70.0 °F 68.5 °F 30.12 in Calm     95% 0.00 in 0.00 W/m2
00:53 69.9 °F 68.4 °F 30.12 in Calm   1.1 mph 95% 0.00 in 0.00 W/m2
00:55 69.9 °F 68.4 °F 30.12 in Calm   3.4 mph 95% 0.00 in 0.00 W/m2
00:56 70.0 °F 68.5 °F 30.11 in NE 1.1 mph 3.4 mph 95% 0.00 in 0.00 W/m2
00:57 70.0 °F 68.5 °F 30.11 in NE 1.1 mph 3.4 mph 95% 0.00 in 0.00 W/m2
00:59 70.0 °F 68.5 °F 30.11 in NE 1.1 mph 3.4 mph 95% 0.00 in 0.00 W/m2
01:00 70.0 °F 68.5 °F 30.11 in NE 3.4 mph 5.8 mph 95% 0.00 in 0.00 W/m2
01:01 70.0 °F 68.5 °F 30.11 in Calm   5.8 mph 95% 0.00 in 0.00 W/m2
01:05 69.9 °F 68.4 °F 30.11 in Calm   3.4 mph 95% 0.00 in 0.00 W/m2
01:06 69.9 °F 68.4 °F 30.11 in NE 3.4 mph 3.4 mph 95% 0.00 in 0.00 W/m2
01:07 69.9 °F 68.4 °F 30.11 in NE 1.1 mph 3.4 mph 95% 0.00 in 0.00 W/m2
01:08 69.9 °F 68.4 °F 30.11 in NE 1.1 mph 3.4 mph 95% 0.00 in 0.00 W/m2
01:10 69.9 °F 68.4 °F 30.11 in Calm   3.4 mph 95% 0.00 in 0.00 W/m2
01:11 69.9 °F 68.4 °F 30.11 in Calm   3.4 mph 95% 0.00 in 0.00 W/m2
01:12 69.9 °F 68.4 °F 30.11 in Calm   1.1 mph 95% 0.00 in 0.00 W/m2
01:13 69.9 °F 68.4 °F 30.11 in Calm   1.1 mph 95% 0.00 in 0.00 W/m2
01:14 69.8 °F 68.3 °F 30.11 in Calm   2.3 mph 95% 0.00 in 0.00 W/m2
01:15 69.8 °F 68.3 °F 30.11 in Calm   2.3 mph 95% 0.00 in 0.00 W/m2
01:17 69.7 °F 68.2 °F 30.11 in NE 2.3 mph 4.6 mph 95% 0.00 in 0.00 W/m2
01:18 69.7 °F 68.2 °F 30.11 in NE 3.4 mph 4.6 mph 95% 0.00 in 0.00 W/m2
01:19 69.7 °F 68.2 °F 30.11 in NE 1.1 mph 4.6 mph 95% 0.00 in 0.00 W/m2
01:20 69.7 °F 68.2 °F 30.11 in NE 1.1 mph 4.6 mph 95% 0.00 in 0.00 W/m2
01:21 69.7 °F 68.2 °F 30.11 in NE 2.3 mph 2.3 mph 95% 0.00 in 0.00 W/m2
01:22 69.7 °F 68.2 °F 30.11 in Calm   4.6 mph 95% 0.00 in 0.00 W/m2
01:23 69.7 °F 68.2 °F 30.11 in NE 2.3 mph 4.6 mph 95% 0.00 in 0.00 W/m2
01:24 69.7 °F 68.2 °F 30.11 in NE 3.4 mph 4.6 mph 95% 0.00 in 0.00 W/m2
01:26 69.6 °F 68.1 °F 30.11 in Calm   4.6 mph 95% 0.00 in 0.00 W/m2
01:28 69.6 °F 68.1 °F 30.11 in NE 2.3 mph 3.4 mph 95% 0.00 in 0.00 W/m2
01:30 69.6 °F 68.1 °F 30.11 in NE 1.1 mph 4.6 mph 95% 0.00 in 0.00 W/m2
01:31 69.5 °F 68.0 °F 30.11 in NE 1.1 mph 1.1 mph 95% 0.00 in 0.00 W/m2
01:32 69.5 °F 68.0 °F 30.11 in Calm   1.1 mph 95% 0.00 in 0.00 W/m2
01:33 69.5 °F 68.0 °F 30.11 in Calm   2.3 mph 95% 0.00 in 0.00 W/m2
01:36 69.4 °F 67.9 °F 30.11 in Calm   2.3 mph 95% 0.00 in 0.00 W/m2
01:37 69.4 °F 67.9 °F 30.10 in Calm   2.3 mph 95% 0.00 in 0.00 W/m2
01:38 69.4 °F 67.9 °F 30.10 in NE 2.3 mph 2.3 mph 95% 0.00 in 0.00 W/m2
01:41 69.3 °F 67.8 °F 30.10 in NE 2.3 mph 4.6 mph 95% 0.00 in 0.00 W/m2
01:42 69.3 °F 67.8 °F 30.10 in NE 1.1 mph 2.3 mph 95% 0.00 in 0.00 W/m2
01:43 69.3 °F 67.8 °F 30.10 in NE 1.1 mph 2.3 mph 95% 0.00 in 0.00 W/m2
01:46 69.3 °F 67.8 °F 30.10 in NE 2.3 mph 2.3 mph 95% 0.00 in 0.00 W/m2
01:48 69.3 °F 67.8 °F 30.10 in Calm   3.4 mph 95% 0.00 in 0.00 W/m2
01:50 69.3 °F 67.8 °F 30.10 in Calm   3.4 mph 95% 0.00 in 0.00 W/m2
01:53 69.4 °F 67.9 °F 30.10 in Calm     95% 0.00 in 0.00 W/m2
01:54 69.4 °F 67.9 °F 30.10 in Calm     95% 0.00 in 0.00 W/m2
01:55 69.4 °F 67.9 °F 30.10 in Calm     95% 0.00 in 0.00 W/m2
01:56 69.4 °F 67.9 °F 30.10 in NE 1.1 mph 2.3 mph 95% 0.00 in 0.00 W/m2
01:58 69.4 °F 67.9 °F 30.10 in NE 1.1 mph 1.1 mph 95% 0.00 in 0.00 W/m2
01:59 69.4 °F 67.9 °F 30.10 in NE 1.1 mph 2.3 mph 95% 0.00 in 0.00 W/m2
02:00 69.4 °F 67.9 °F 30.10 in Calm   2.3 mph 95% 0.00 in 0.00 W/m2
02:01 69.5 °F 68.0 °F 30.10 in NE 1.1 mph 2.3 mph 95% 0.00 in 0.00 W/m2
02:04 69.5 °F 68.0 °F 30.10 in Calm   3.4 mph 95% 0.00 in 0.00 W/m2
02:05 69.5 °F 68.0 °F 30.10 in Calm   3.4 mph 95% 0.00 in 0.00 W/m2
02:06 69.5 °F 68.0 °F 30.10 in Calm   3.4 mph 95% 0.00 in 0.00 W/m2
02:07 69.4 °F 67.9 °F 30.10 in Calm     95% 0.00 in 0.00 W/m2
02:09 69.4 °F 67.9 °F 30.10 in Calm     95% 0.00 in 0.00 W/m2
02:11 69.4 °F 67.9 °F 30.10 in Calm     95% 0.00 in 0.00 W/m2
02:12 69.4 °F 67.9 °F 30.10 in Calm     95% 0.00 in 0.00 W/m2
02:13 69.4 °F 67.9 °F 30.10 in Calm     95% 0.00 in 0.00 W/m2
02:14 69.4 °F 67.9 °F 30.10 in NE 2.3 mph 2.3 mph 95% 0.00 in 0.00 W/m2
02:15 69.4 °F 67.9 °F 30.11 in NE 2.3 mph 2.3 mph 95% 0.00 in 0.00 W/m2
02:16 69.4 °F 67.9 °F 30.11 in NE 2.3 mph 2.3 mph 95% 0.00 in 0.00 W/m2
02:18 69.4 °F 67.9 °F 30.11 in Calm   2.3 mph 95% 0.00 in 0.00 W/m2
02:19 69.4 °F 67.9 °F 30.11 in Calm   2.3 mph 95% 0.00 in 0.00 W/m2
02:20 69.4 °F 67.9 °F 30.11 in Calm   2.3 mph 95% 0.00 in 0.00 W/m2
02:22 69.4 °F 67.9 °F 30.11 in NE 1.1 mph 2.3 mph 95% 0.00 in 0.00 W/m2
02:24 69.4 °F 67.9 °F 30.11 in Calm   2.3 mph 95% 0.00 in 0.00 W/m2
02:25 69.4 °F 67.9 °F 30.11 in Calm   2.3 mph 95% 0.00 in 0.00 W/m2
02:26 69.4 °F 67.9 °F 30.11 in Calm   2.3 mph 95% 0.00 in 0.00 W/m2
02:28 69.4 °F 68.2 °F 30.11 in Calm   1.1 mph 96% 0.00 in 0.00 W/m2
02:31 69.4 °F 68.2 °F 30.11 in NE 1.1 mph 2.3 mph 96% 0.00 in 0.00 W/m2
02:32 69.5 °F 68.0 °F 30.11 in Calm   1.1 mph 95% 0.00 in 0.00 W/m2
02:33 69.4 °F 67.9 °F 30.11 in Calm   1.1 mph 95% 0.00 in 0.00 W/m2
02:37 69.5 °F 68.3 °F 30.11 in Calm     96% 0.00 in 0.00 W/m2
02:38 69.5 °F 68.3 °F 30.11 in Calm     96% 0.00 in 0.00 W/m2
02:39 69.5 °F 68.3 °F 30.11 in NE 3.4 mph 3.4 mph 96% 0.00 in 0.00 W/m2
02:42 69.5 °F 68.3 °F 30.11 in Calm     96% 0.00 in 0.00 W/m2
02:43 69.5 °F 68.3 °F 30.11 in Calm     96% 0.00 in 0.00 W/m2
02:44 69.5 °F 68.3 °F 30.11 in Calm     96% 0.00 in 0.00 W/m2
02:45 69.5 °F 68.0 °F 30.11 in Calm   2.3 mph 95% 0.00 in 0.00 W/m2
02:48 69.5 °F 68.3 °F 30.11 in Calm   2.3 mph 96% 0.00 in 0.00 W/m2
02:49 69.5 °F 68.3 °F 30.11 in Calm   2.3 mph 96% 0.00 in 0.00 W/m2
02:50 69.5 °F 68.3 °F 30.11 in Calm   2.3 mph 96% 0.00 in 0.00 W/m2
02:51 69.5 °F 68.3 °F 30.11 in Calm   2.3 mph 96% 0.00 in 0.00 W/m2
02:54 69.6 °F 68.4 °F 30.11 in Calm     96% 0.00 in 0.00 W/m2
02:55 69.5 °F 68.3 °F 30.11 in Calm     96% 0.00 in 0.00 W/m2
02:56 69.5 °F 68.3 °F 30.11 in Calm     96% 0.00 in 0.00 W/m2
02:57 69.5 °F 68.3 °F 30.11 in Calm     96% 0.00 in 0.00 W/m2
03:00 69.5 °F 68.0 °F 30.11 in Calm   2.3 mph 95% 0.00 in 0.00 W/m2
03:02 69.5 °F 68.0 °F 30.11 in NE 3.4 mph 3.4 mph 95% 0.00 in 0.00 W/m2
03:03 69.5 °F 68.0 °F 30.11 in Calm   3.4 mph 95% 0.00 in 0.00 W/m2
03:04 69.5 °F 68.0 °F 30.11 in Calm   3.4 mph 95% 0.00 in 0.00 W/m2
03:06 69.4 °F 67.9 °F 30.11 in NE 2.3 mph 3.4 mph 95% 0.00 in 0.00 W/m2
03:07 69.5 °F 68.0 °F 30.11 in NE 2.3 mph 3.4 mph 95% 0.00 in 0.00 W/m2
03:09 69.4 °F 67.9 °F 30.11 in Calm   3.4 mph 95% 0.00 in 0.00 W/m2
03:10 69.4 °F 67.9 °F 30.11 in Calm   3.4 mph 95% 0.00 in 0.00 W/m2
03:11 69.4 °F 67.9 °F 30.11 in Calm   3.4 mph 95% 0.00 in 0.00 W/m2
03:12 69.5 °F 68.0 °F 30.12 in Calm     95% 0.00 in 0.00 W/m2
03:13 69.5 °F 68.0 °F 30.12 in Calm     95% 0.00 in 0.00 W/m2
03:14 69.5 °F 68.0 °F 30.12 in Calm     95% 0.00 in 0.00 W/m2
03:16 69.4 °F 67.9 °F 30.12 in NE 2.3 mph 4.6 mph 95% 0.00 in 0.00 W/m2
03:17 69.4 °F 67.9 °F 30.11 in NE 1.1 mph 2.3 mph 95% 0.00 in 0.00 W/m2
03:18 69.4 °F 67.9 °F 30.11 in NE 3.4 mph 3.4 mph 95% 0.00 in 0.00 W/m2
03:19 69.4 °F 67.9 °F 30.11 in NE 2.3 mph 3.4 mph 95% 0.00 in 0.00 W/m2
03:20 69.4 °F 67.9 °F 30.12 in NE 1.1 mph 4.6 mph 95% 0.00 in 0.00 W/m2
03:21 69.4 °F 67.9 °F 30.12 in NE 1.1 mph 4.6 mph 95% 0.00 in 0.00 W/m2
03:24 69.3 °F 67.8 °F 30.12 in NE 1.1 mph 2.3 mph 95% 0.00 in 0.00 W/m2
03:25 69.3 °F 67.8 °F 30.12 in Calm   2.3 mph 95% 0.00 in 0.00 W/m2
03:26 69.3 °F 67.8 °F 30.12 in NE 2.3 mph 2.3 mph 95% 0.00 in 0.00 W/m2
03:27 69.3 °F 67.8 °F 30.12 in Calm   2.3 mph 95% 0.00 in 0.00 W/m2
03:29 69.3 °F 67.8 °F 30.12 in Calm   3.4 mph 95% 0.00 in 0.00 W/m2
03:30 69.3 °F 67.8 °F 30.11 in Calm   3.4 mph 95% 0.00 in 0.00 W/m2
03:32 69.3 °F 67.8 °F 30.11 in NE 1.1 mph 2.3 mph 95% 0.00 in 0.00 W/m2
03:33 69.3 °F 67.8 °F 30.11 in Calm   2.3 mph 95% 0.00 in 0.00 W/m2
03:35 69.3 °F 67.8 °F 30.11 in NE 1.1 mph 3.4 mph 95% 0.00 in 0.00 W/m2
03:36 69.3 °F 67.8 °F 30.11 in NE 3.4 mph 3.4 mph 95% 0.00 in 0.00 W/m2
03:38 69.3 °F 67.8 °F 30.11 in Calm   2.3 mph 95% 0.00 in 0.00 W/m2
03:39 69.2 °F 67.7 °F 30.11 in Calm   3.4 mph 95% 0.00 in 0.00 W/m2
03:40 69.2 °F 67.7 °F 30.11 in NE 2.3 mph 4.6 mph 95% 0.00 in 0.00 W/m2
03:41 69.2 °F 67.7 °F 30.11 in NE 2.3 mph 4.6 mph 95% 0.00 in 0.00 W/m2
03:43 69.2 °F 67.7 °F 30.11 in Calm   4.6 mph 95% 0.00 in 0.00 W/m2
03:44 69.2 °F 67.7 °F 30.11 in Calm   4.6 mph 95% 0.00 in 0.00 W/m2
03:46 69.2 °F 67.7 °F 30.11 in NE 1.1 mph 4.6 mph 95% 0.00 in 0.00 W/m2
03:47 69.2 °F 67.7 °F 30.12 in NE 1.1 mph 1.1 mph 95% 0.00 in 0.00 W/m2
03:49 69.2 °F 67.7 °F 30.12 in Calm   4.6 mph 95% 0.00 in 0.00 W/m2
03:50 69.2 °F 67.7 °F 30.12 in NE 3.4 mph 4.6 mph 95% 0.00 in 0.00 W/m2
03:52 69.2 °F 67.7 °F 30.11 in NE 1.1 mph 3.4 mph 95% 0.00 in 0.00 W/m2
03:54 69.2 °F 67.7 °F 30.11 in NE 3.4 mph 3.4 mph 95% 0.00 in 0.00 W/m2
03:55 69.2 °F 67.7 °F 30.11 in NE 3.4 mph 3.4 mph 95% 0.00 in 0.00 W/m2
03:56 69.2 °F 67.7 °F 30.11 in NE 1.1 mph 3.4 mph 95% 0.00 in 0.00 W/m2
03:57 69.2 °F 67.7 °F 30.11 in NE 2.3 mph 2.3 mph 95% 0.00 in 0.00 W/m2
03:59 69.2 °F 67.7 °F 30.11 in Calm   3.4 mph 95% 0.00 in 0.00 W/m2
04:00 69.2 °F 67.7 °F 30.11 in Calm   3.4 mph 95% 0.00 in 0.00 W/m2
04:03 69.2 °F 67.7 °F 30.11 in NE 3.4 mph 5.8 mph 95% 0.00 in 0.00 W/m2
04:04 69.2 °F 67.7 °F 30.11 in NE 2.3 mph 5.8 mph 95% 0.00 in 0.00 W/m2
04:06 69.2 °F 67.7 °F 30.11 in NE 1.1 mph 5.8 mph 95% 0.00 in 0.00 W/m2
04:07 69.2 °F 67.7 °F 30.11 in Calm   2.3 mph 95% 0.00 in 0.00 W/m2
04:09 69.2 °F 67.7 °F 30.11 in Calm   2.3 mph 95% 0.00 in 0.00 W/m2
04:10 69.2 °F 67.7 °F 30.11 in Calm   2.3 mph 95% 0.00 in 0.00 W/m2
04:11 69.2 °F 67.7 °F 30.11 in NE 1.1 mph 2.3 mph 95% 0.00 in 0.00 W/m2
04:13 69.2 °F 67.7 °F 30.11 in NE 2.3 mph 2.3 mph 95% 0.00 in 0.00 W/m2
04:14 69.2 °F 67.7 °F 30.11 in NE 3.4 mph 3.4 mph 95% 0.00 in 0.00 W/m2
04:15 69.2 °F 67.7 °F 30.11 in NE 3.4 mph 3.4 mph 95% 0.00 in 0.00 W/m2
04:16 69.2 °F 67.7 °F 30.11 in Calm   2.3 mph 95% 0.00 in 0.00 W/m2
04:18 69.2 °F 67.7 °F 30.11 in NE 2.3 mph 3.4 mph 95% 0.00 in 0.00 W/m2
04:19 69.2 °F 67.7 °F 30.11 in Calm   3.4 mph 95% 0.00 in 0.00 W/m2
04:20 69.2 °F 67.7 °F 30.11 in NE 1.1 mph 3.4 mph 95% 0.00 in 0.00 W/m2
04:21 69.2 °F 67.7 °F 30.11 in NE 1.1 mph 3.4 mph 95% 0.00 in 0.00 W/m2
04:22 69.2 °F 67.7 °F 30.11 in Calm   4.6 mph 95% 0.00 in 0.00 W/m2
04:23 69.2 °F 67.7 °F 30.11 in NE 2.3 mph 4.6 mph 95% 0.00 in 0.00 W/m2
04:26 69.2 °F 67.7 °F 30.11 in NE 4.6 mph 4.6 mph 95% 0.00 in 0.00 W/m2
04:28 69.2 °F 67.7 °F 30.11 in NE 2.3 mph 4.6 mph 95% 0.00 in 0.00 W/m2
04:32 69.1 °F 67.6 °F 30.11 in NE 1.1 mph 2.3 mph 95% 0.00 in 0.00 W/m2
04:33 69.1 °F 67.6 °F 30.11 in NE 4.6 mph 4.6 mph 95% 0.00 in 0.00 W/m2
04:34 69.1 °F 67.6 °F 30.11 in NE 4.6 mph 4.6 mph 95% 0.00 in 0.00 W/m2
04:35 69.1 °F 67.6 °F 30.11 in Calm   4.6 mph 95% 0.00 in 0.00 W/m2
04:37 69.0 °F 67.5 °F 30.11 in NE 3.4 mph 3.4 mph 95% 0.00 in 0.00 W/m2
04:38 69.1 °F 67.6 °F 30.11 in NE 1.1 mph 3.4 mph 95% 0.00 in 0.00 W/m2
04:39 69.0 °F 67.5 °F 30.11 in Calm   3.4 mph 95% 0.00 in 0.00 W/m2
04:41 69.0 °F 67.5 °F 30.11 in NE 1.1 mph 4.6 mph 95% 0.00 in 0.00 W/m2
04:43 69.0 °F 67.5 °F 30.11 in Calm   3.4 mph 95% 0.00 in 0.00 W/m2
04:44 69.0 °F 67.5 °F 30.11 in Calm   3.4 mph 95% 0.00 in 0.00 W/m2
04:45 69.0 °F 67.5 °F 30.11 in Calm   3.4 mph 95% 0.00 in 0.00 W/m2
04:47 69.0 °F 67.5 °F 30.11 in Calm   3.4 mph 95% 0.00 in 0.00 W/m2
04:48 69.1 °F 67.6 °F 30.11 in NE 5.8 mph 5.8 mph 95% 0.00 in 0.00 W/m2
04:49 69.0 °F 67.5 °F 30.11 in NE 3.4 mph 5.8 mph 95% 0.00 in 0.00 W/m2
04:50 69.0 °F 67.5 °F 30.11 in NE 2.3 mph 5.8 mph 95% 0.00 in 0.00 W/m2
04:51 69.0 °F 67.5 °F 30.11 in NE 1.1 mph 5.8 mph 95% 0.00 in 0.00 W/m2
04:53 69.0 °F 67.5 °F 30.12 in NE 1.1 mph 3.4 mph 95% 0.00 in 0.00 W/m2
04:56 69.0 °F 67.5 °F 30.12 in Calm   4.6 mph 95% 0.00 in 0.00 W/m2
04:59 69.1 °F 67.6 °F 30.12 in NE 3.4 mph 3.4 mph 95% 0.00 in 0.00 W/m2
05:01 69.1 °F 67.6 °F 30.12 in Calm   5.8 mph 95% 0.00 in 0.00 W/m2
05:02 69.1 °F 67.6 °F 30.12 in Calm   5.8 mph 95% 0.00 in 0.00 W/m2
05:04 69.1 °F 67.6 °F 30.12 in NE 5.8 mph 5.8 mph 95% 0.00 in 0.00 W/m2
05:05 69.1 °F 67.6 °F 30.12 in Calm   5.8 mph 95% 0.00 in 0.00 W/m2
05:07 69.1 °F 67.6 °F 30.13 in Calm   4.6 mph 95% 0.00 in 0.00 W/m2
05:09 69.1 °F 67.6 °F 30.13 in NE 1.1 mph 4.6 mph 95% 0.00 in 0.00 W/m2
05:10 69.1 °F 67.6 °F 30.13 in Calm   4.6 mph 95% 0.00 in 0.00 W/m2
05:11 69.2 °F 67.7 °F 30.13 in NE 3.4 mph 4.6 mph 95% 0.00 in 0.00 W/m2
05:12 69.2 °F 67.7 °F 30.13 in NE 2.3 mph 3.4 mph 95% 0.00 in 0.00 W/m2
05:15 69.2 °F 67.7 °F 30.13 in NE 1.1 mph 3.4 mph 95% 0.00 in 0.00 W/m2
05:16 69.2 °F 67.7 °F 30.13 in NE 2.3 mph 3.4 mph 95% 0.00 in 0.00 W/m2
05:17 69.2 °F 67.7 °F 30.13 in Calm   2.3 mph 95% 0.00 in 0.00 W/m2
05:18 69.2 °F 67.7 °F 30.13 in NE 1.1 mph 2.3 mph 95% 0.00 in 0.00 W/m2
05:21 69.2 °F 67.7 °F 30.13 in NE 2.3 mph 4.6 mph 95% 0.00 in 0.00 W/m2
05:22 69.1 °F 67.6 °F 30.13 in Calm   3.4 mph 95% 0.00 in 0.00 W/m2
05:23 69.1 °F 67.6 °F 30.13 in Calm   3.4 mph 95% 0.00 in 0.00 W/m2
05:25 69.1 °F 67.6 °F 30.13 in NE 5.8 mph 5.8 mph 95% 0.00 in 0.00 W/m2
05:26 69.1 °F 67.6 °F 30.13 in Calm   1.1 mph 95% 0.00 in 0.00 W/m2
05:28 69.1 °F 67.6 °F 30.13 in NE 1.1 mph 2.3 mph 95% 0.00 in 0.00 W/m2
05:30 69.1 °F 67.6 °F 30.13 in Calm   4.6 mph 95% 0.00 in 0.00 W/m2
05:31 69.1 °F 67.6 °F 30.13 in NE 1.1 mph 4.6 mph 95% 0.00 in 0.00 W/m2
05:33 69.1 °F 67.6 °F 30.13 in NE 1.1 mph 5.8 mph 95% 0.00 in 0.00 W/m2
05:35 69.1 °F 67.6 °F 30.12 in NE 1.1 mph 5.8 mph 95% 0.00 in 0.00 W/m2
05:36 69.1 °F 67.6 °F 30.12 in NE 1.1 mph 1.1 mph 95% 0.00 in 0.00 W/m2
05:38 69.1 °F 67.6 °F 30.12 in Calm   3.4 mph 95% 0.00 in 0.00 W/m2
05:39 69.1 °F 67.6 °F 30.12 in NE 1.1 mph 3.4 mph 95% 0.00 in 0.00 W/m2
05:40 69.1 °F 67.6 °F 30.12 in Calm   3.4 mph 95% 0.00 in 0.00 W/m2
05:42 69.1 °F 67.3 °F 30.12 in NE 2.3 mph 4.6 mph 94% 0.00 in 0.00 W/m2
05:43 69.0 °F 67.2 °F 30.12 in NE 2.3 mph 4.6 mph 94% 0.00 in 0.00 W/m2
05:45 69.0 °F 67.2 °F 30.12 in NE 4.6 mph 5.8 mph 94% 0.00 in 0.00 W/m2
05:46 69.0 °F 67.2 °F 30.12 in NE 4.6 mph 5.8 mph 94% 0.00 in 0.00 W/m2
05:47 69.0 °F 67.2 °F 30.12 in NE 3.4 mph 5.8 mph 94% 0.00 in 0.00 W/m2
05:49 69.0 °F 67.2 °F 30.12 in NE 1.1 mph 5.8 mph 94% 0.00 in 0.00 W/m2
05:50 68.9 °F 67.1 °F 30.13 in NE 1.1 mph 5.8 mph 94% 0.00 in 0.00 W/m2
05:51 69.0 °F 67.2 °F 30.13 in NE 3.4 mph 5.8 mph 94% 0.00 in 0.00 W/m2
05:53 68.9 °F 67.1 °F 30.12 in NE 1.1 mph 4.6 mph 94% 0.00 in 0.00 W/m2
05:55 68.9 °F 67.1 °F 30.12 in NE 3.4 mph 5.8 mph 94% 0.00 in 0.00 W/m2
05:56 68.9 °F 67.1 °F 30.12 in NE 1.1 mph 5.8 mph 94% 0.00 in 0.00 W/m2
05:57 68.9 °F 67.1 °F 30.12 in Calm   2.3 mph 94% 0.00 in 0.00 W/m2
05:59 68.8 °F 67.0 °F 30.12 in NE 3.4 mph 4.6 mph 94% 0.00 in 0.00 W/m2
06:00 68.8 °F 67.0 °F 30.12 in NE 1.1 mph 4.6 mph 94% 0.00 in 0.00 W/m2
06:01 68.8 °F 67.0 °F 30.12 in Calm   4.6 mph 94% 0.00 in 0.00 W/m2
06:02 68.7 °F 66.9 °F 30.12 in Calm   1.1 mph 94% 0.00 in 0.00 W/m2
06:03 68.6 °F 66.8 °F 30.12 in NE 2.3 mph 4.6 mph 94% 0.00 in 0.00 W/m2
06:05 68.6 °F 66.5 °F 30.12 in NE 4.6 mph 4.6 mph 93% 0.00 in 0.00 W/m2
06:06 68.5 °F 66.4 °F 30.12 in NE 1.1 mph 2.3 mph 93% 0.00 in 0.00 W/m2
06:07 68.5 °F 66.4 °F 30.12 in NE 4.6 mph 4.6 mph 93% 0.00 in 0.00 W/m2
06:08 68.5 °F 66.4 °F 30.12 in NE 1.1 mph 4.6 mph 93% 0.00 in 0.00 W/m2
06:10 68.5 °F 66.4 °F 30.12 in NE 1.1 mph 4.6 mph 93% 0.00 in 0.00 W/m2
06:11 68.4 °F 66.3 °F 30.13 in NE 2.3 mph 4.6 mph 93% 0.00 in 0.00 W/m2
06:12 68.4 °F 66.3 °F 30.13 in NE 2.3 mph 3.4 mph 93% 0.00 in 0.00 W/m2
06:13 68.4 °F 66.3 °F 30.13 in NE 1.1 mph 3.4 mph 93% 0.00 in 0.00 W/m2
06:15 68.4 °F 66.3 °F 30.13 in NE 4.6 mph 5.8 mph 93% 0.00 in 0.00 W/m2
06:16 68.4 °F 66.3 °F 30.13 in Calm   5.8 mph 93% 0.00 in 0.00 W/m2
06:18 68.4 °F 66.3 °F 30.13 in NE 5.8 mph 5.8 mph 93% 0.00 in 0.00 W/m2
06:19 68.4 °F 66.3 °F 30.13 in NE 2.3 mph 5.8 mph 93% 0.00 in 5.00 W/m2
06:20 68.3 °F 66.2 °F 30.13 in NE 2.3 mph 5.8 mph 93% 0.00 in 5.00 W/m2
06:21 68.3 °F 66.2 °F 30.13 in NE 1.1 mph 5.8 mph 93% 0.00 in 5.00 W/m2
06:23 68.3 °F 66.2 °F 30.12 in Calm   3.4 mph 93% 0.00 in 7.00 W/m2
06:25 68.3 °F 66.2 °F 30.13 in NE 4.6 mph 4.6 mph 93% 0.00 in 9.00 W/m2
06:26 68.2 °F 66.1 °F 30.13 in NE 4.6 mph 6.9 mph 93% 0.00 in 11.00 W/m2
06:28 68.2 °F 66.1 °F 30.12 in Calm   6.9 mph 93% 0.00 in 11.00 W/m2
06:29 68.2 °F 66.1 °F 30.13 in NE 2.3 mph 6.9 mph 93% 0.00 in 9.00 W/m2
06:30 68.2 °F 66.1 °F 30.13 in NE 2.3 mph 6.9 mph 93% 0.00 in 11.00 W/m2
06:31 68.2 °F 66.1 °F 30.13 in Calm     93% 0.00 in 12.00 W/m2
06:33 68.1 °F 66.0 °F 30.13 in Calm   2.3 mph 93% 0.00 in 18.00 W/m2
06:34 68.1 °F 66.0 °F 30.13 in NE 3.4 mph 3.4 mph 93% 0.00 in 19.00 W/m2
06:35 68.1 °F 66.0 °F 30.13 in NE 3.4 mph 3.4 mph 93% 0.00 in 21.00 W/m2
06:36 68.0 °F 65.9 °F 30.13 in NE 1.1 mph 2.3 mph 93% 0.00 in 23.00 W/m2
06:39 68.0 °F 65.6 °F 30.12 in NE 1.1 mph 5.8 mph 92% 0.00 in 21.00 W/m2
06:40 68.0 °F 65.6 °F 30.12 in NE 1.1 mph 5.8 mph 92% 0.00 in 21.00 W/m2
06:41 67.9 °F 65.5 °F 30.12 in Calm   1.1 mph 92% 0.00 in 21.00 W/m2
06:44 67.9 °F 65.5 °F 30.12 in NE 1.1 mph 4.6 mph 92% 0.00 in 23.00 W/m2
06:45 67.9 °F 65.2 °F 30.12 in Calm   5.8 mph 91% 0.00 in 25.00 W/m2
06:47 67.8 °F 65.1 °F 30.12 in Calm   6.9 mph 91% 0.00 in 26.00 W/m2
06:48 67.8 °F 65.1 °F 30.12 in NE 2.3 mph 6.9 mph 91% 0.00 in 26.00 W/m2
06:50 67.8 °F 65.1 °F 30.13 in Calm   6.9 mph 91% 0.00 in 32.00 W/m2
06:51 67.8 °F 65.1 °F 30.13 in Calm   6.9 mph 91% 0.00 in 32.00 W/m2
06:52 67.8 °F 65.1 °F 30.12 in Calm   3.4 mph 91% 0.00 in 32.00 W/m2
06:53 67.8 °F 65.1 °F 30.12 in NE 1.1 mph 3.4 mph 91% 0.00 in 28.00 W/m2
06:54 67.8 °F 65.1 °F 30.13 in Calm   3.4 mph 91% 0.00 in 30.00 W/m2
06:55 67.8 °F 64.8 °F 30.13 in Calm   3.4 mph 90% 0.00 in 42.00 W/m2
06:56 67.8 °F 64.8 °F 30.13 in NE 2.3 mph 3.4 mph 90% 0.00 in 37.00 W/m2
06:58 67.8 °F 64.8 °F 30.13 in NE 1.1 mph 4.6 mph 90% 0.00 in 35.00 W/m2
06:59 67.8 °F 64.8 °F 30.13 in NE 2.3 mph 4.6 mph 90% 0.00 in 37.00 W/m2
07:01 67.8 °F 64.8 °F 30.13 in NE 1.1 mph 4.6 mph 90% 0.00 in 58.00 W/m2
07:03 67.8 °F 64.4 °F 30.13 in Calm   4.6 mph 89% 0.00 in 60.00 W/m2
07:05 67.8 °F 64.4 °F 30.13 in NE 3.4 mph 4.6 mph 89% 0.00 in 67.00 W/m2
07:06 67.9 °F 64.5 °F 30.13 in NE 4.6 mph 4.6 mph 89% 0.00 in 60.00 W/m2
07:07 67.9 °F 64.5 °F 30.13 in NE 4.6 mph 4.6 mph 89% 0.00 in 56.00 W/m2
07:08 67.9 °F 64.2 °F 30.13 in NE 1.1 mph 4.6 mph 88% 0.00 in 53.00 W/m2
07:09 67.9 °F 64.2 °F 30.13 in NE 2.3 mph 4.6 mph 88% 0.00 in 54.00 W/m2
07:11 68.0 °F 64.3 °F 30.13 in NE 2.3 mph 2.3 mph 88% 0.00 in 120.00 W/m2
07:12 68.0 °F 64.3 °F 30.13 in NE 2.3 mph 2.3 mph 88% 0.00 in 123.00 W/m2
07:13 68.0 °F 64.3 °F 30.13 in NE 1.1 mph 4.6 mph 88% 0.00 in 127.00 W/m2
07:14 68.0 °F 64.3 °F 30.13 in NE 2.3 mph 4.6 mph 88% 0.00 in 127.00 W/m2
07:15 68.1 °F 64.4 °F 30.13 in NE 1.1 mph 4.6 mph 88% 0.00 in 127.00 W/m2
07:17 68.1 °F 64.4 °F 30.13 in Calm   1.1 mph 88% 0.00 in 56.00 W/m2
07:18 68.1 °F 64.1 °F 30.13 in NE 3.4 mph 3.4 mph 87% 0.00 in 51.00 W/m2
07:20 68.2 °F 64.2 °F 30.13 in NE 4.6 mph 4.6 mph 87% 0.00 in 134.00 W/m2
07:22 68.2 °F 64.2 °F 30.13 in NE 1.1 mph 4.6 mph 87% 0.00 in 144.00 W/m2
07:25 68.3 °F 64.3 °F 30.13 in Calm   4.6 mph 87% 0.00 in 142.00 W/m2
07:26 68.3 °F 64.3 °F 30.13 in Calm   2.3 mph 87% 0.00 in 142.00 W/m2
07:30 68.4 °F 64.1 °F 30.14 in Calm   5.8 mph 86% 0.00 in 165.00 W/m2
07:31 68.5 °F 64.2 °F 30.14 in Calm   5.8 mph 86% 0.00 in 167.00 W/m2
07:33 68.5 °F 64.2 °F 30.14 in Calm   2.3 mph 86% 0.00 in 174.00 W/m2
07:36 68.6 °F 64.2 °F 30.14 in Calm   4.6 mph 86% 0.00 in 83.00 W/m2
07:37 68.6 °F 64.2 °F 30.14 in Calm     86% 0.00 in 51.00 W/m2
07:39 68.6 °F 64.2 °F 30.14 in NE 2.3 mph 4.6 mph 86% 0.00 in 81.00 W/m2
07:42 68.8 °F 64.4 °F 30.14 in NE 3.4 mph 4.6 mph 86% 0.00 in 60.00 W/m2
07:44 68.9 °F 64.6 °F 30.14 in Calm   4.6 mph 86% 0.00 in 54.00 W/m2
07:47 69.0 °F 64.3 °F 30.14 in ENE 8.1 mph 8.1 mph 85% 0.00 in 58.00 W/m2
07:48 69.0 °F 64.3 °F 30.14 in ENE 3.4 mph 8.1 mph 85% 0.00 in 54.00 W/m2
07:50 69.1 °F 64.4 °F 30.14 in ENE 3.4 mph 8.1 mph 85% 0.00 in 56.00 W/m2
Peotone Weather Data
Compliments of Weather Underground